Location: Broletto
(44.6000°N, 10.5833°E)
Time: 02:16:31
(UTC+00:00)

Exosat Rocket - Pass Details

Date: 18 April 2021
Orbit: 760 x 2515 km, 72.3° (Epoch: 07 May)

Event Time Altitude Azimuth Distance (km) Brightness Sun altitude
Rises 19:34:20 0° 335° (NNW) 4,138 8.3 -15.0°
Reaches altitude 10° 19:37:23 10° 336° (NNW) 2,943 7.4 -15.5°
Maximum altitude 19:43:55 89° 249° (WSW) 881 3.7 -16.4°
Enters shadow 19:47:20 22° 158° (SSE) 1,673 4.8 -16.9°
